OSCAR 29

Satellite information

Favourite Embed

Satellite Type and Status

PAYLOADIN ORBIT

Key statistics

Satellite OSCAR 29 at a glance.

Uptime

13923

Days in orbit

Revolutions

≈ 13.4

Per day

Orbit

SSO

Sun Synchronous Orbit

Inclination

90.4

Latest

Satellite identification and parameters

Extended collection of information and parameters for OSCAR 29.

Object identification

Identified? True

Debris? False

Object name: OSCAR 29

International designator: 1987-080B

Object number (NORAD): 18362

Object ID (CCSDS): 18362

Country: UNITED STATES OF AMERICA (US)

Current information (Y/N): Y

RCS size: LARGE

Orbital parameters

Period: 107.108 minutes

Inclination: 90.3717 deg

SMA: 7470.932 km

Apoapsis: 1171.889 km

Periapsis: 1013.705 km

RAAN: 78.0375 deg

Eccentricy: 0.01058664

Argument of periapsis: 18.2869 deg

Mean anomaly: 48.3396 deg

Mean motion: 13.44437464 rev/day

Mean motion (dot): 0.0000012 rev/day2

B* drag term: 0.00018528393 1/REarth

Two-line elements (TLE)

Creation date: Oct. 28, 2025, 7:11 p.m.

Reference frame: TEME

Reference center: EARTH

Epoch: Oct. 28, 2025, 10:55 a.m. UTC

TLE line 0: 0 OSCAR 29

TLE line 1: 1 18362U 87080B 25301.45528031 .00000120 00000-0 18528-3 0 9992

TLE line 2: 2 18362 90.3717 78.0375 0105866 18.2869 48.3396 13.44437464869016

Live tracking on map

Real-time ground track for satellite OSCAR 29.

In-orbit conjunctions

There are no conjunctions computed for OSCAR 29, at the moment. Check back to stay up to date, as we update our databases every day.

Go to all conjunctions

Associated space launch

The Transit-O series of satellites that closely followed the design of Transit 5C-1 were also called “Oscars” (Oscar is the phonetic alphabet for “O”, i. e., operational). They were also called NNS (Navy Navigation Satellite) or shortened NavSat.

OSCAR 29 was lifted into orbit during the mission ‘Scout G-1 | Transit-O 27,29’, on board a Scout G-1 space rocket.

The launch took place on Sept. 16, 1987, 7:22 p.m. from Space Launch Complex 5.

For more information about the launch, click the button.

Launch to space Scout G-1 | Transit-O 27,29
Scout G-1 | Transit-O 27,29

Agency: N/A

Status: Launch Successful

Launch date: Sept. 16, 1987, 7:22 p.m. UTC

Rocket: Scout G-1

Launch pad: Space Launch Complex 5

Location: Vandenberg SFB, CA, USA

...

Latest news about this satellite

There are no fresh news available about this satellite. Check back as we update our databases every day.


Newsletter sign-up

Weekly statistics, charts and insights to help you stay on top of the space industry.